FLOCK 4BE-27

Last updated on Mon Sep 16 2024 00:02:03 GMT+0000 (Coordinated Universal Time)

1 60513U 24149AX 24259.48159600 .00013874 00000+0 66373-3 0 9990 2 60513 97.4446 334.6189 0006342 58.8142 301.3713 15.19077256 4508
UTC large
Height (km)
Speed (km/s)
/
Latitude / Longitude
Inclination (degrees)
Orbital Period (minutes)
Azimuth
Elevation
Range (km)
Doppler Factor

Next 0 passes for location: London (51.5072 / 0.1276)

Sorry there are no passes over London.